EW9733 Weather Reports


time (UTC)temp
F
wind
direction
speed
knots
gust
knots
rain 1hr
in
rain 24hr
in
rain mn
in
humidity
%
barometer
mb
20260903053036 63 111 0.0 2.6 0.00 0.01 0.00 89 1017.2
20260903051552 63 146 0.0 1.7 0.00 0.01 0.00 89 1017.7
20260903050032 63 128 0.0 0.9 0.00 0.01 0.00 90 1017.6
20260903044539 63 126 0.0 0.0 0.00 0.01 0.00 90 1017.7
20260903043107 63 126 0.0 1.7 0.00 0.01 0.00 90 1017.7
20260903041530 63 123 0.0 2.6 0.00 0.01 0.00 90 1017.6
20260903040026 63 119 0.0 1.7 0.00 0.01 0.00 90 1017.4
20260903034535 63 123 0.0 0.0 0.00 0.01 0.01 89 1017.8
20260903033022 63 123 0.0 0.0 0.00 0.01 0.01 88 1018.1
20260903031521 63 123 0.0 0.0 0.00 0.01 0.01 89 1018.3
20260903030021 63 123 0.0 0.0 0.00 0.01 0.01 89 1018.5
20260903024524 64 123 0.0 0.9 0.00 0.01 0.01 89 1018.3
20260903023020 63 123 0.0 3.5 0.00 0.01 0.01 89 1018.2
20260903021519 63 165 0.0 6.1 0.00 0.01 0.01 90 1018.2
20260903020023 63 163 0.9 3.5 0.00 0.01 0.01 90 1018.2
20260903014521 62 145 0.0 4.3 0.00 0.01 0.01 89 1018.1
20260903013019 62 176 0.0 0.9 0.00 0.01 0.01 87 1018.5
20260903011518 62 177 0.0 0.0 0.00 0.01 0.01 86 1018.7
20260903010017 63 177 0.0 0.0 0.00 0.01 0.01 85 1018.6
20260903004516 63 177 0.0 0.0 0.00 0.01 0.01 85 1018.8
20260903003017 64 177 0.0 0.0 0.00 0.01 0.01 83 1018.8
20260903001517 64 177 0.0 0.0 0.00 0.01 0.01 82 1019.2
20260903000015 65 177 0.0 0.0 0.00 0.01 0.01 81 1019.5
20260902234521 66 177 0.0 0.0 0.00 0.01 0.01 81 1019.4
20260902233013 66 177 0.0 0.0 0.00 0.01 0.01 80 1019.3
20260902231514 67 177 0.0 1.7 0.00 0.01 0.01 78 1019.2
20260902230012 68 184 0.0 1.7 0.00 0.01 0.01 77 1019.5
20260902224512 68 185 0.0 3.5 0.00 0.01 0.01 75 1019.6
20260902223022 69 87 0.0 3.5 0.00 0.01 0.01 74 1019.5
20260902221516 69 126 0.0 1.7 0.00 0.01 0.01 73 1019.7
20260902220011 70 121 0.0 1.7 0.00 0.01 0.01 72 1019.8
20260902214510 70 138 0.9 3.5 0.00 0.01 0.01 71 1019.5
20260902213009 70 147 0.0 5.2 0.00 0.01 0.01 71 1019.2
20260902211508 71 141 0.0 4.3 0.00 0.01 0.01 71 1019.6
20260902210008 71 48 0.9 7.0 0.00 0.01 0.01 70 1019.5
20260902204513 72 42 0.0 2.6 0.00 0.01 0.01 69 1019.8
20260902203008 72 57 0.9 5.2 0.00 0.01 0.01 66 1019.9
20260902201505 73 80 0.9 4.3 0.00 0.01 0.01 63 1019.7
20260902200005 73 66 0.9 7.0 0.00 0.01 0.01 60 1019.9
20260902194508 74 157 0.9 5.2 0.00 0.01 0.01 61 1020.0
20260902193004 74 63 0.0 7.8 0.00 0.01 0.01 58 1020.1
20260902191503 74 112 1.7 5.2 0.00 0.01 0.01 59 1020.1
20260902190002 73 159 2.6 8.7 0.00 0.01 0.01 61 1019.9
20260902184502 74 69 2.6 7.8 0.00 0.02 0.01 63 1019.9
20260902183003 74 192 0.9 7.8 0.00 0.02 0.01 60 1020.1
20260902181601 74 84 2.6 8.7 0.00 0.02 0.01 59 1020.1
20260902180118 74 39 1.7 5.2 0.00 0.02 0.01 62 1020.0
20260902174600 74 156 0.9 7.0 0.00 0.02 0.01 61 1020.2
20260902173059 74 171 4.3 7.8 0.00 0.02 0.01 61 1020.3
20260902171558 74 48 3.5 8.7 0.00 0.02 0.01 61 1020.4
20260902170059 74 184 1.7 7.0 0.00 0.02 0.01 60 1020.4
20260902164554 74 204 1.7 5.2 0.00 0.02 0.01 62 1020.5
20260902163054 73 45 0.0 7.8 0.00 0.02 0.01 64 1020.4
20260902161554 72 153 0.9 6.1 0.00 0.02 0.01 62 1020.6
20260902160056 73 181 2.6 7.0 0.00 0.02 0.01 64 1020.7
20260902154550 73 71 1.7 7.0 0.00 0.03 0.01 64 1021.0
20260902153048 72 81 0.0 7.0 0.00 0.03 0.01 67 1020.9
20260902151544 72 29 1.7 6.1 0.00 0.03 0.01 69 1020.9
20260902150039 72 11 0.0 4.3 0.01 0.03 0.01 74 1021.0
20260902144535 70 87 0.9 4.3 0.01 0.03 0.01 77 1020.8
20260902143030 69 186 0.9 5.2 0.01 0.03 0.01 80 1020.7
20260902141535 69 30 2.6 7.8 0.01 0.03 0.01 80 1020.5
20260902140024 68 82 1.7 5.2 0.00 0.02 0.00 82 1020.2
20260902134520 67 67 1.7 7.0 0.00 0.05 0.00 84 1020.3
20260902133017 66 57 0.0 4.3 0.00 0.05 0.00 89 1020.3
20260902131521 65 163 0.0 2.6 0.00 0.05 0.00 92 1020.5
20260902130010 65 57 0.9 3.5 0.00 0.05 0.00 93 1020.3
20260902124508 64 70 0.0 1.7 0.00 0.05 0.00 94 1020.5
20260902123005 64 122 0.0 1.7 0.00 0.05 0.00 94 1020.4
20260902121501 64 120 0.0 0.9 0.00 0.05 0.00 94 1020.5
20260902120057 62 121 0.0 0.0 0.00 0.05 0.00 94 1020.8
20260902114554 62 121 0.0 0.0 0.00 0.05 0.00 94 1020.8
20260902113106 61 121 0.0 0.0 0.00 0.05 0.00 94 1020.5
20260902111556 61 121 0.0 0.0 0.00 0.05 0.00 94 1020.4
20260902110022 61 121 0.0 0.0 0.00 0.05 0.00 94 1020.2
20260902104534 60 121 0.0 0.0 0.00 0.05 0.00 94 1019.9
20260902103016 60 121 0.0 0.0 0.00 0.05 0.00 93 1019.7
20260902101514 60 121 0.0 0.0 0.00 0.05 0.00 93 1019.6
20260902100013 60 121 0.0 0.0 0.00 0.05 0.00 93 1019.5
20260902094518 59 121 0.0 0.0 0.00 0.05 0.00 93 1019.6
20260902093011 59 121 0.0 0.0 0.00 0.05 0.00 93 1019.5
20260902091508 60 121 0.0 0.0 0.00 0.05 0.00 93 1019.4
20260902090007 60 121 0.0 0.0 0.00 0.05 0.00 93 1019.2
20260902084505 60 121 0.0 0.0 0.00 0.05 0.00 93 1019.0
20260902083004 61 121 0.0 0.0 0.00 0.05 0.00 93 1019.2
20260902081513 61 121 0.0 0.0 0.00 0.05 0.00 93 1019.1
20260902080005 61 121 0.0 0.0 0.00 0.05 0.00 93 1019.2
20260902074501 61 121 0.0 0.0 0.00 0.05 0.00 93 1019.3
20260902073101 61 121 0.0 0.0 0.00 0.05 0.00 93 1019.2
20260902071601 61 121 0.0 0.0 0.00 0.05 0.00 93 1019.0
20260902070104 61 121 0.0 0.0 0.00 0.05 0.00 93 1019.0
20260902064605 61 121 0.0 0.0 0.00 0.05 0.00 93 1019.0
20260902063057 61 121 0.0 0.0 0.00 0.05 0.00 93 1019.0
20260902061612 61 121 0.0 0.0 0.00 0.05 0.00 93 1019.0
20260902060058 61 121 0.0 0.0 0.00 0.05 0.00 93 1019.2
20260902054601 61 121 0.0 0.0 0.00 0.05 0.00 92 1019.1